• In Germany
  • List of Countries
  • For 7 days
  • Water Temperature
  • Satellite Maps
  • Weather Map
  • Weather Widgets
  • user-avatar
    Login

    Hourly Weather Grodzisk Mazowiecki

    Today, 24 October, Tuesday

    Time Temperature Precipitation Wind Pressure Humidity
    00:00 +6°C° 0 mm 2 mps 756 mmHg 87%
    01:00 +5°C° 0 mm 2 mps 756 mmHg 87%
    02:00 +5°C° 0 mm 2 mps 757 mmHg 87%
    03:00 +5°C° 0 mm 2 mps 757 mmHg 86%
    04:00 +5°C° 0 mm 2 mps 757 mmHg 86%
    05:00 +5°C° 0 mm 2 mps 758 mmHg 86%
    06:00 +5°C° 0 mm 2 mps 758 mmHg 85%
    07:00 +5°C° 0 mm 2 mps 759 mmHg 85%
    08:00 +5°C° 0 mm 2 mps 759 mmHg 81%
    09:00 +6°C° 0 mm 2 mps 760 mmHg 76%
    10:00 +7°C° 0 mm 2 mps 760 mmHg 72%
    11:00 +8°C° 0 mm 2 mps 760 mmHg 69%
    12:00 +8°C° 0 mm 2 mps 760 mmHg 66%
    13:00 +9°C° 0 mm 2 mps 760 mmHg 63%
    14:00 +9°C° 0 mm 2 mps 760 mmHg 65%
    15:00 +8°C° 0 mm 2 mps 760 mmHg 68%
    16:00 +9°C° 0 mm 1 mps 760 mmHg 70%
    17:00 +7°C° 0 mm 2 mps 761 mmHg 72%
    18:00 +6°C° 0 mm 2 mps 761 mmHg 75%
    19:00 +6°C° 0 mm 2 mps 761 mmHg 78%
    20:00 +5°C° 0 mm 2 mps 761 mmHg 79%
    21:00 +4°C° 0 mm 3 mps 761 mmHg 80%
    22:00 +4°C° 0 mm 3 mps 761 mmHg 81%
    23:00 +3°C° 0 mm 3 mps 762 mmHg 83%

    Tomorrow, 25 October, Wednesday

    Time Temperature Precipitation Wind Pressure Humidity
    00:00 +4°C° 0 mm 2 mps 762 mmHg 84%
    01:00 +4°C° 0 mm 2 mps 762 mmHg 86%
    02:00 +4°C° 0 mm 2 mps 761 mmHg 86%
    03:00 +3°C° 0 mm 3 mps 761 mmHg 86%
    04:00 +3°C° 0 mm 3 mps 761 mmHg 85%
    05:00 +4°C° 0 mm 4 mps 760 mmHg 85%
    06:00 +4°C° 0 mm 4 mps 760 mmHg 84%
    07:00 +3°C° 0 mm 5 mps 760 mmHg 83%
    08:00 +5°C° 0.1 mm 5 mps 760 mmHg 79%
    09:00 +4°C° 0.1 mm 6 mps 759 mmHg 76%
    10:00 +5°C° 0.1 mm 6 mps 759 mmHg 73%
    11:00 +5°C° 1.2 mm 6 mps 759 mmHg 75%
    12:00 +5°C° 1.2 mm 6 mps 758 mmHg 77%
    13:00 +7°C° 1.2 mm 6 mps 758 mmHg 79%
    14:00 +7°C° 0.5 mm 6 mps 757 mmHg 79%
    15:00 +7°C° 0.5 mm 6 mps 757 mmHg 79%
    16:00 +7°C° 0.5 mm 6 mps 756 mmHg 78%
    17:00 +8°C° 0.1 mm 6 mps 756 mmHg 80%
    18:00 +9°C° 0.1 mm 5 mps 756 mmHg 82%
    19:00 +9°C° 0.1 mm 5 mps 756 mmHg 84%
    20:00 +10°C° 0.2 mm 5 mps 756 mmHg 86%
    21:00 +10°C° 0.2 mm 5 mps 756 mmHg 88%
    22:00 +12°C° 0.2 mm 5 mps 756 mmHg 90%
    23:00 +12°C° 0.1 mm 5 mps 756 mmHg 91%

    Day after tomorrow, 26 October, Thursday

    Time Temperature Precipitation Wind Pressure Humidity
    00:00 +12°C° 0.1 mm 5 mps 756 mmHg 92%
    01:00 +12°C° 0.1 mm 5 mps 756 mmHg 93%
    02:00 +11°C° 0 mm 4 mps 756 mmHg 93%
    03:00 +11°C° 0 mm 4 mps 756 mmHg 94%
    04:00 +10°C° 0 mm 4 mps 756 mmHg 94%
    05:00 +10°C° 0 mm 4 mps 757 mmHg 95%
    06:00 +10°C° 0 mm 4 mps 757 mmHg 95%
    07:00 +8°C° 0 mm 4 mps 757 mmHg 95%
    08:00 +10°C° 0 mm 4 mps 757 mmHg 91%
    09:00 +10°C° 0 mm 5 mps 757 mmHg 86%
    10:00 +12°C° 0 mm 5 mps 757 mmHg 81%
    11:00 +12°C° 0 mm 5 mps 757 mmHg 79%
    12:00 +13°C° 0 mm 5 mps 756 mmHg 76%
    13:00 +13°C° 0 mm 6 mps 756 mmHg 73%
    14:00 +13°C° 0 mm 5 mps 756 mmHg 75%
    15:00 +12°C° 0 mm 4 mps 756 mmHg 77%
    16:00 +12°C° 0 mm 4 mps 756 mmHg 78%
    17:00 +11°C° 0 mm 3 mps 755 mmHg 81%
    18:00 +11°C° 0 mm 3 mps 755 mmHg 84%
    19:00 +10°C° 0 mm 3 mps 755 mmHg 87%
    20:00 +10°C° 0 mm 3 mps 755 mmHg 88%
    21:00 +10°C° 0 mm 3 mps 754 mmHg 89%
    22:00 +10°C° 0 mm 3 mps 754 mmHg 91%
    23:00 +10°C° 0.1 mm 3 mps 753 mmHg 92%

    27 October, Friday

    Time Temperature Precipitation Wind Pressure Humidity
    00:00 +10°C° 0.1 mm 3 mps 753 mmHg 93%
    01:00 +10°C° 0.1 mm 3 mps 752 mmHg 95%
    02:00 +10°C° 0.3 mm 3 mps 752 mmHg 95%
    03:00 +10°C° 0.3 mm 3 mps 751 mmHg 96%
    04:00 +10°C° 0.3 mm 3 mps 750 mmHg 96%
    05:00 +10°C° 0.1 mm 3 mps 750 mmHg 95%
    06:00 +10°C° 0.1 mm 4 mps 749 mmHg 95%
    07:00 +10°C° 0.1 mm 4 mps 749 mmHg 94%
    08:00 +10°C° 0.1 mm 4 mps 749 mmHg 90%
    09:00 +10°C° 0.1 mm 5 mps 748 mmHg 87%
    10:00 +10°C° 0.1 mm 5 mps 748 mmHg 83%
    11:00 +10°C° 0.1 mm 5 mps 748 mmHg 80%
    12:00 +10°C° 0.1 mm 5 mps 747 mmHg 78%
    13:00 +10°C° 0.1 mm 5 mps 747 mmHg 75%
    14:00 +10°C° 0.1 mm 5 mps 746 mmHg 76%
    15:00 +10°C° 0.1 mm 4 mps 746 mmHg 77%
    16:00 +10°C° 0.1 mm 4 mps 746 mmHg 78%
    17:00 +8°C° 0.1 mm 4 mps 746 mmHg 80%
    18:00 +8°C° 0.1 mm 4 mps 746 mmHg 83%
    19:00 +7°C° 0.1 mm 4 mps 746 mmHg 85%
    20:00 +7°C° 0.1 mm 5 mps 745 mmHg 85%
    21:00 +7°C° 0.1 mm 5 mps 745 mmHg 86%
    22:00 +7°C° 0.1 mm 5 mps 745 mmHg 86%
    23:00 +7°C° 0.4 mm 5 mps 744 mmHg 87%

    28 October, Saturday

    Time Temperature Precipitation Wind Pressure Humidity
    00:00 +7°C° 0.4 mm 6 mps 744 mmHg 87%
    01:00 +7°C° 0.4 mm 6 mps 744 mmHg 87%
    02:00 +6°C° 0.4 mm 7 mps 744 mmHg 86%
    03:00 +6°C° 0.4 mm 7 mps 744 mmHg 85%
    04:00 +8°C° 0.4 mm 7 mps 744 mmHg 84%
    05:00 +7°C° 0.1 mm 6 mps 744 mmHg 85%
    06:00 +5°C° 0.1 mm 6 mps 744 mmHg 87%
    07:00 +5°C° 0.1 mm 6 mps 745 mmHg 88%
    08:00 +5°C° 0 mm 6 mps 745 mmHg 84%
    09:00 +7°C° 0 mm 6 mps 745 mmHg 80%
    10:00 +7°C° 0 mm 6 mps 745 mmHg 76%
    11:00 +8°C° 0.1 mm 6 mps 744 mmHg 74%
    12:00 +8°C° 0.1 mm 6 mps 743 mmHg 73%
    13:00 +8°C° 0.1 mm 6 mps 743 mmHg 71%
    14:00 +8°C° 0.2 mm 6 mps 742 mmHg 74%
    15:00 +7°C° 0.2 mm 5 mps 741 mmHg 77%
    16:00 +7°C° 0.2 mm 5 mps 741 mmHg 80%
    17:00 +7°C° 0.2 mm 5 mps 740 mmHg 81%
    18:00 +7°C° 0.2 mm 5 mps 740 mmHg 82%
    19:00 +6°C° 0.2 mm 5 mps 739 mmHg 83%
    20:00 +6°C° 0.1 mm 5 mps 739 mmHg 83%
    21:00 +6°C° 0.1 mm 5 mps 738 mmHg 83%
    22:00 +6°C° 0.1 mm 4 mps 738 mmHg 83%
    23:00 +6°C° 0 mm 4 mps 737 mmHg 84%

    29 October, Sunday

    Time Temperature Precipitation Wind Pressure Humidity
    00:00 +6°C° 0 mm 4 mps 737 mmHg 84%
    01:00 +5°C° 0 mm 4 mps 737 mmHg 85%
    02:00 +5°C° 0 mm 4 mps 736 mmHg 84%
    03:00 +5°C° 0 mm 4 mps 736 mmHg 84%
    04:00 +5°C° 0 mm 3 mps 736 mmHg 84%
    05:00 +5°C° 0 mm 3 mps 736 mmHg 85%
    06:00 +5°C° 0 mm 3 mps 736 mmHg 86%
    07:00 +6°C° 0 mm 2 mps 737 mmHg 87%
    08:00 +7°C° 0 mm 2 mps 737 mmHg 82%
    09:00 +8°C° 0 mm 3 mps 737 mmHg 77%
    10:00 +9°C° 0 mm 3 mps 738 mmHg 73%
    11:00 +9°C° 0 mm 2 mps 738 mmHg 70%
    12:00 +10°C° 0 mm 2 mps 738 mmHg 68%
    13:00 +11°C° 0 mm 1 mps 738 mmHg 65%
    14:00 +11°C° 0 mm 1 mps 739 mmHg 68%
    15:00 +10°C° 0 mm 1 mps 739 mmHg 70%
    16:00 +9°C° 0 mm 0 mps 739 mmHg 73%
    17:00 +8°C° 0.1 mm 0 mps 740 mmHg 75%
    18:00 +9°C° 0.1 mm 1 mps 741 mmHg 78%
    19:00 +8°C° 0.1 mm 1 mps 741 mmHg 80%
    20:00 +8°C° 0.1 mm 1 mps 742 mmHg 82%
    21:00 +8°C° 0.1 mm 1 mps 742 mmHg 84%
    22:00 +7°C° 0.1 mm 1 mps 743 mmHg 86%
    23:00 +7°C° 0 mm 1 mps 743 mmHg 87%

    30 October, Monday

    Time Temperature Precipitation Wind Pressure Humidity
    00:00 +7°C° 0 mm 1 mps 743 mmHg 89%
    01:00 +6°C° 0 mm 2 mps 744 mmHg 90%
    02:00 +5°C° 0 mm 2 mps 744 mmHg 91%
    03:00 +5°C° 0 mm 2 mps 745 mmHg 92%
    04:00 +5°C° 0 mm 2 mps 745 mmHg 93%
    05:00 +4°C° 0 mm 3 mps 745 mmHg 93%
    06:00 +4°C° 0 mm 3 mps 746 mmHg 92%
    07:00 +4°C° 0 mm 4 mps 746 mmHg 92%
    08:00 +5°C° 0 mm 4 mps 746 mmHg 85%
    09:00 +6°C° 0 mm 4 mps 747 mmHg 79%
    10:00 +7°C° 0 mm 4 mps 747 mmHg 72%
    11:00 +7°C° 0 mm 4 mps 747 mmHg 69%
    12:00 +8°C° 0 mm 4 mps 747 mmHg 67%
    13:00 +8°C° 0 mm 4 mps 746 mmHg 64%
    14:00 +8°C° 0 mm 4 mps 746 mmHg 67%
    15:00 +7°C° 0 mm 4 mps 746 mmHg 70%
    16:00 +6°C° 0 mm 4 mps 746 mmHg 73%
    17:00 +6°C° 0 mm 4 mps 746 mmHg 74%
    18:00 +6°C° 0 mm 4 mps 746 mmHg 76%
    19:00 +6°C° 0 mm 5 mps 746 mmHg 78%
    20:00 +6°C° 0 mm 5 mps 746 mmHg 80%
    21:00 +6°C° 0 mm 5 mps 745 mmHg 82%
    22:00 +6°C° 0 mm 5 mps 745 mmHg 84%
    23:00 +6°C° 0.1 mm 5 mps 744 mmHg 84%
    Show more